Time,TemperatureF,DewpointF,PressureIn,WindDirection,WindDirectionDegrees,WindSpeedMPH,WindSpeedGustMPH,Humidity,HourlyPrecipIn,Conditions,Clouds,dailyrainin,SoftwareType,DateUTC
2013-04-21 00:10:00,24.0,17.0,30.52,NW,321,1.0,5.0,76,0.00,,,0.00,weatherlink.com 1.10,2013-04-21 04:10:00,
2013-04-21 00:25:00,23.7,17.0,30.53,NNW,330,2.0,3.0,76,0.00,,,0.00,weatherlink.com 1.10,2013-04-21 04:25:00,
2013-04-21 00:40:00,23.4,17.0,30.54,NNW,330,0.0,3.0,77,0.00,,,0.00,weatherlink.com 1.10,2013-04-21 04:40:00,
2013-04-21 00:55:00,23.2,17.0,30.54,NNW,338,2.0,4.0,78,0.00,,,0.00,weatherlink.com 1.10,2013-04-21 04:55:00,
2013-04-21 01:10:00,22.9,17.0,30.55,NNW,338,0.0,3.0,78,0.00,,,0.00,weatherlink.com 1.10,2013-04-21 05:10:00,
2013-04-21 01:25:00,22.4,17.0,30.55,NNW,338,0.0,1.0,79,0.00,,,0.00,weatherlink.com 1.10,2013-04-21 05:25:00,
2013-04-21 01:40:00,22.2,17.0,30.55,NNW,338,0.0,2.0,81,0.00,,,0.00,weatherlink.com 1.10,2013-04-21 05:40:00,
2013-04-21 01:55:00,21.5,17.0,30.56,NNW,338,0.0,0.0,82,0.00,,,0.00,weatherlink.com 1.10,2013-04-21 05:55:00,
2013-04-21 02:10:00,20.9,17.0,30.57,NNW,338,0.0,0.0,83,0.00,,,0.00,weatherlink.com 1.10,2013-04-21 06:10:00,
2013-04-21 02:25:00,20.5,16.0,30.57,NNW,338,0.0,1.0,84,0.00,,,0.00,weatherlink.com 1.10,2013-04-21 06:25:00,
2013-04-21 02:40:00,19.9,16.0,30.58,NNW,338,0.0,0.0,85,0.00,,,0.00,weatherlink.com 1.10,2013-04-21 06:40:00,
2013-04-21 02:55:00,19.4,16.0,30.59,NNW,338,0.0,0.0,86,0.00,,,0.00,weatherlink.com 1.10,2013-04-21 06:55:00,
2013-04-21 03:10:00,18.9,15.0,30.59,NNW,338,0.0,0.0,86,0.00,,,0.00,weatherlink.com 1.10,2013-04-21 07:10:00,
2013-04-21 03:25:00,18.6,15.0,30.59,NNW,338,0.0,0.0,87,0.00,,,0.00,weatherlink.com 1.10,2013-04-21 07:25:00,
2013-04-21 03:40:00,18.2,15.0,30.60,NNW,338,0.0,0.0,87,0.00,,,0.00,weatherlink.com 1.10,2013-04-21 07:40:00,
2013-04-21 03:55:00,17.8,15.0,30.61,NNW,338,0.0,0.0,87,0.00,,,0.00,weatherlink.com 1.10,2013-04-21 07:55:00,
2013-04-21 04:10:00,17.6,14.0,30.61,NNW,338,0.0,0.0,87,0.00,,,0.00,weatherlink.com 1.10,2013-04-21 08:10:00,
2013-04-21 04:25:00,17.3,14.0,30.61,NNW,338,0.0,0.0,87,0.00,,,0.00,weatherlink.com 1.10,2013-04-21 08:25:00,
2013-04-21 04:40:00,17.2,14.0,30.62,NNW,338,0.0,0.0,87,0.00,,,0.00,weatherlink.com 1.10,2013-04-21 08:40:00,
2013-04-21 04:55:00,16.9,14.0,30.62,NNW,338,0.0,0.0,87,0.00,,,0.00,weatherlink.com 1.10,2013-04-21 08:55:00,
2013-04-21 05:10:00,16.6,13.0,30.63,NNW,338,0.0,0.0,87,0.00,,,0.00,weatherlink.com 1.10,2013-04-21 09:10:00,
2013-04-21 05:25:00,16.5,13.0,30.63,NNW,338,0.0,1.0,87,0.00,,,0.00,weatherlink.com 1.10,2013-04-21 09:25:00,
2013-04-21 05:40:00,16.4,13.0,30.63,NNW,338,0.0,0.0,87,0.00,,,0.00,weatherlink.com 1.10,2013-04-21 09:40:00,
2013-04-21 05:56:00,16.2,13.0,30.64,NNW,338,0.0,1.0,87,0.00,,,0.00,weatherlink.com 1.10,2013-04-21 09:56:00,
2013-04-21 06:11:00,16.1,13.0,30.64,NNW,338,0.0,0.0,87,0.00,,,0.00,weatherlink.com 1.10,2013-04-21 10:11:00,
2013-04-21 06:26:00,15.9,13.0,30.65,NNW,338,0.0,0.0,87,0.00,,,0.00,weatherlink.com 1.10,2013-04-21 10:26:00,
2013-04-21 06:41:00,15.8,13.0,30.66,NNW,338,0.0,1.0,87,0.00,,,0.00,weatherlink.com 1.10,2013-04-21 10:41:00,
2013-04-21 06:56:00,15.8,13.0,30.67,NNW,338,0.0,0.0,88,0.00,,,0.00,weatherlink.com 1.10,2013-04-21 10:56:00,
2013-04-21 07:11:00,16.1,13.0,30.68,NNW,338,0.0,3.0,87,0.00,,,0.00,weatherlink.com 1.10,2013-04-21 11:11:00,
2013-04-21 07:26:00,16.7,14.0,30.68,NNW,338,0.0,2.0,87,0.00,,,0.00,weatherlink.com 1.10,2013-04-21 11:26:00,
2013-04-21 07:41:00,17.6,14.0,30.69,NNW,338,0.0,2.0,87,0.00,,,0.00,weatherlink.com 1.10,2013-04-21 11:41:00,
2013-04-21 07:56:00,19.7,17.0,30.70,NNW,338,2.0,2.0,87,0.00,,,0.00,weatherlink.com 1.10,2013-04-21 11:56:00,
2013-04-21 08:11:00,21.8,19.0,30.71,NNW,338,0.0,2.0,87,0.00,,,0.00,weatherlink.com 1.10,2013-04-21 12:11:00,
2013-04-21 08:41:00,27.8,21.0,30.71,ESE,123,2.0,5.0,77,0.00,,,0.00,weatherlink.com 1.10,2013-04-21 12:41:00,
2013-04-21 08:56:00,29.0,22.0,30.71,ESE,104,2.0,5.0,75,0.00,,,0.00,weatherlink.com 1.10,2013-04-21 12:56:00,
2013-04-21 09:11:00,29.7,22.0,30.71,South,184,1.0,7.0,72,0.00,,,0.00,weatherlink.com 1.10,2013-04-21 13:11:00,
2013-04-21 09:26:00,30.1,22.0,30.72,ESE,109,0.0,6.0,73,0.00,,,0.00,weatherlink.com 1.10,2013-04-21 13:26:00,
2013-04-21 09:41:00,30.3,23.0,30.72,SSE,159,2.0,7.0,74,0.00,,,0.00,weatherlink.com 1.10,2013-04-21 13:41:00,
2013-04-21 09:56:00,30.2,24.0,30.72,South,188,3.0,9.0,76,0.00,,,0.00,weatherlink.com 1.10,2013-04-21 13:56:00,
2013-04-21 10:11:00,30.0,24.0,30.72,South,190,3.0,7.0,78,0.00,,,0.00,weatherlink.com 1.10,2013-04-21 14:11:00,
2013-04-21 10:26:00,30.5,25.0,30.72,SSE,148,4.0,8.0,79,0.00,,,0.00,weatherlink.com 1.10,2013-04-21 14:26:00,
2013-04-21 10:41:00,30.4,25.0,30.73,SE,136,4.0,8.0,80,0.00,,,0.00,weatherlink.com 1.10,2013-04-21 14:41:00,
2013-04-21 10:56:00,31.1,26.0,30.73,SSE,160,0.0,10.0,80,0.00,,,0.00,weatherlink.com 1.10,2013-04-21 14:56:00,
2013-04-21 11:11:00,32.0,27.0,30.73,SSE,156,4.0,8.0,80,0.00,,,0.00,weatherlink.com 1.10,2013-04-21 15:11:00,
2013-04-21 11:26:00,32.5,23.0,30.73,South,176,3.0,10.0,69,0.00,,,0.00,weatherlink.com 1.10,2013-04-21 15:26:00,
2013-04-21 11:41:00,33.3,23.0,30.73,ESE,117,3.0,9.0,67,0.00,,,0.00,weatherlink.com 1.10,2013-04-21 15:41:00,
2013-04-21 11:56:00,32.8,23.0,30.73,East,99,6.0,10.0,66,0.00,,,0.00,weatherlink.com 1.10,2013-04-21 15:56:00,
2013-04-21 12:11:00,34.0,24.0,30.73,ESE,117,4.0,11.0,66,0.00,,,0.00,weatherlink.com 1.10,2013-04-21 16:11:00,
2013-04-21 12:26:00,34.6,24.0,30.72,ESE,120,4.0,9.0,66,0.00,,,0.00,weatherlink.com 1.10,2013-04-21 16:26:00,
2013-04-21 12:41:00,35.2,24.0,30.72,SE,131,4.0,11.0,65,0.00,,,0.00,weatherlink.com 1.10,2013-04-21 16:41:00,
2013-04-21 12:57:00,35.3,25.0,30.72,SSE,154,3.0,9.0,67,0.00,,,0.00,weatherlink.com 1.10,2013-04-21 16:57:00,
2013-04-21 13:12:00,35.9,27.0,30.71,South,175,4.0,8.0,70,0.00,,,0.00,weatherlink.com 1.10,2013-04-21 17:12:00,
2013-04-21 13:27:00,35.4,25.0,30.71,South,173,4.0,12.0,66,0.00,,,0.00,weatherlink.com 1.10,2013-04-21 17:27:00,
2013-04-21 13:42:00,35.3,26.0,30.70,ESE,117,7.0,10.0,70,0.00,,,0.00,weatherlink.com 1.10,2013-04-21 17:42:00,
2013-04-21 13:57:00,35.4,27.0,30.70,ESE,104,5.0,10.0,71,0.00,,,0.00,weatherlink.com 1.10,2013-04-21 17:57:00,
2013-04-21 14:12:00,35.7,27.0,30.69,ESE,119,1.0,8.0,70,0.00,,,0.00,weatherlink.com 1.10,2013-04-21 18:12:00,
2013-04-21 14:27:00,35.6,26.0,30.69,SSE,164,5.0,11.0,69,0.00,,,0.00,weatherlink.com 1.10,2013-04-21 18:27:00,
2013-04-21 14:42:00,36.8,27.0,30.69,ESE,104,7.0,10.0,69,0.00,,,0.00,weatherlink.com 1.10,2013-04-21 18:42:00,
2013-04-21 14:57:00,35.9,23.0,30.68,South,186,3.0,14.0,61,0.00,,,0.00,weatherlink.com 1.10,2013-04-21 18:57:00,
2013-04-21 15:12:00,36.5,23.0,30.68,SSW,198,3.0,11.0,59,0.00,,,0.00,weatherlink.com 1.10,2013-04-21 19:12:00,
2013-04-21 15:27:00,37.2,22.0,30.67,SSE,166,4.0,9.0,54,0.00,,,0.00,weatherlink.com 1.10,2013-04-21 19:27:00,
2013-04-21 15:42:00,36.7,21.0,30.67,SE,137,8.0,14.0,53,0.00,,,0.00,weatherlink.com 1.10,2013-04-21 19:42:00,
2013-04-21 15:57:00,36.9,21.0,30.66,SSW,192,6.0,12.0,53,0.00,,,0.00,weatherlink.com 1.10,2013-04-21 19:57:00,
2013-04-21 16:12:00,37.8,16.0,30.65,SE,136,7.0,15.0,42,0.00,,,0.00,weatherlink.com 1.10,2013-04-21 20:12:00,
2013-04-21 16:27:00,37.3,17.0,30.65,SSE,166,8.0,11.0,44,0.00,,,0.00,weatherlink.com 1.10,2013-04-21 20:27:00,
2013-04-21 16:42:00,37.5,20.0,30.64,SE,137,0.0,11.0,50,0.00,,,0.00,weatherlink.com 1.10,2013-04-21 20:42:00,
2013-04-21 16:57:00,37.0,20.0,30.63,SE,138,9.0,14.0,51,0.00,,,0.00,weatherlink.com 1.10,2013-04-21 20:57:00,
2013-04-21 17:12:00,36.1,24.0,30.63,SSE,166,7.0,11.0,61,0.00,,,0.00,weatherlink.com 1.10,2013-04-21 21:12:00,
2013-04-21 17:27:00,36.3,25.0,30.62,SSE,167,6.0,11.0,63,0.00,,,0.00,weatherlink.com 1.10,2013-04-21 21:27:00,
2013-04-21 17:42:00,36.2,26.0,30.62,South,177,7.0,13.0,67,0.00,,,0.00,weatherlink.com 1.10,2013-04-21 21:42:00,
2013-04-21 17:57:00,36.6,27.0,30.61,ESE,107,4.0,13.0,67,0.00,,,0.00,weatherlink.com 1.10,2013-04-21 21:57:00,
2013-04-21 18:12:00,36.7,27.0,30.61,SSE,148,4.0,12.0,69,0.00,,,0.00,weatherlink.com 1.10,2013-04-21 22:12:00,
2013-04-21 18:27:00,36.5,28.0,30.60,SSE,165,5.0,13.0,72,0.00,,,0.00,weatherlink.com 1.10,2013-04-21 22:27:00,
2013-04-21 18:42:00,36.5,29.0,30.59,ESE,115,4.0,9.0,73,0.00,,,0.00,weatherlink.com 1.10,2013-04-21 22:42:00,
2013-04-21 18:57:00,36.2,28.0,30.59,SSE,154,4.0,11.0,73,0.00,,,0.00,weatherlink.com 1.10,2013-04-21 22:57:00,
2013-04-21 19:12:00,35.0,28.0,30.58,SE,124,4.0,10.0,75,0.00,,,0.00,weatherlink.com 1.10,2013-04-21 23:12:00,
2013-04-21 19:27:00,35.0,28.0,30.58,SE,137,3.0,11.0,75,0.00,,,0.00,weatherlink.com 1.10,2013-04-21 23:27:00,
2013-04-21 19:42:00,35.3,28.0,30.58,East,80,0.0,8.0,76,0.00,,,0.00,weatherlink.com 1.10,2013-04-21 23:42:00,
2013-04-21 19:57:00,34.6,28.0,30.57,ESE,117,5.0,10.0,77,0.00,,,0.00,weatherlink.com 1.10,2013-04-21 23:57:00,
2013-04-21 20:12:00,34.0,28.0,30.57,ESE,122,0.0,10.0,77,0.00,,,0.00,weatherlink.com 1.10,2013-04-22 00:12:00,
2013-04-21 20:27:00,33.4,27.0,30.56,SE,130,1.0,10.0,77,0.00,,,0.00,weatherlink.com 1.10,2013-04-22 00:27:00,
2013-04-21 20:42:00,33.1,27.0,30.56,ESE,115,3.0,12.0,79,0.00,,,0.00,weatherlink.com 1.10,2013-04-22 00:42:00,
2013-04-21 20:57:00,32.8,28.0,30.57,East,94,0.0,9.0,81,0.00,,,0.00,weatherlink.com 1.10,2013-04-22 00:57:00,
2013-04-21 21:12:00,32.6,28.0,30.57,SE,133,0.0,9.0,82,0.00,,,0.00,weatherlink.com 1.10,2013-04-22 01:12:00,
2013-04-21 21:27:00,32.8,27.0,30.57,SE,138,6.0,8.0,79,0.00,,,0.00,weatherlink.com 1.10,2013-04-22 01:27:00,
2013-04-21 21:42:00,33.0,27.0,30.57,ESE,111,4.0,9.0,79,0.00,,,0.00,weatherlink.com 1.10,2013-04-22 01:42:00,
2013-04-21 21:57:00,33.0,27.0,30.57,SSE,166,1.0,10.0,78,0.00,,,0.00,weatherlink.com 1.10,2013-04-22 01:57:00,
2013-04-21 22:12:00,32.9,27.0,30.57,SE,126,0.0,7.0,79,0.00,,,0.00,weatherlink.com 1.10,2013-04-22 02:12:00,
2013-04-21 22:27:00,33.2,28.0,30.56,ESE,119,4.0,8.0,82,0.00,,,0.00,weatherlink.com 1.10,2013-04-22 02:27:00,
2013-04-21 22:42:00,33.4,29.0,30.56,SE,127,1.0,10.0,82,0.00,,,0.00,weatherlink.com 1.10,2013-04-22 02:42:00,
2013-04-21 22:57:00,33.4,29.0,30.55,ENE,62,4.0,9.0,83,0.00,,,0.00,weatherlink.com 1.10,2013-04-22 02:57:00,
2013-04-21 23:12:00,33.7,29.0,30.55,South,177,3.0,12.0,83,0.00,,,0.00,weatherlink.com 1.10,2013-04-22 03:12:00,
2013-04-21 23:27:00,33.8,29.0,30.55,SE,144,3.0,10.0,83,0.00,,,0.00,weatherlink.com 1.10,2013-04-22 03:27:00,
2013-04-21 23:42:00,33.6,29.0,30.54,SE,131,5.0,13.0,83,0.00,,,0.00,weatherlink.com 1.10,2013-04-22 03:42:00,
2013-04-21 23:57:00,33.5,29.0,30.54,ESE,111,4.0,12.0,83,0.00,,,0.00,weatherlink.com 1.10,2013-04-22 03:57:00,